Location: Evensen
(52.5775°N, 9.5258°E)
Time: 11:22:13
(UTC+00:00)

BlueWalker 3 - Pass Details

Date: 15 May 2026
Orbit: 447 x 456 km, 53.2° (Epoch: 6 June)

Event Time Altitude Azimuth Distance (km) Brightness Sun altitude
Exits shadow 23:04:55 15° 100° (E) 1,305 3.9 -18.3°
Drops below altitude 10° 23:05:49 10° 90° (E) 1,575 4.4 -18.3°
Sets 23:08:14 0° 75° (ENE) 2,451 5.6 -18.3°
